Theta_e
335 334 333 333 331 329 329 325 319 323 317 316 314 313 313 312 311 310 316 319 317 317 319 320 320 319 315 314 312 310 307 307
333 334 334 325 327 327 324 324 319 327 320 316 314 314 313 312 310 309 311 318 316 316 316 317 316 316 314 313 312 310 309 307
333 333 330 329 330 325 322 318 322 324 324 316 315 315 314 312 312 310 309 315 315 315 315 316 315 315 313 312 310 309 309 308
333 332 329 330 327 326 325 323 320 322 324 320 314 315 313 314 315 314 310 309 310 314 315 315 314 313 312 311 310 309 309 309
333 332 332 330 329 325 325 323 321 322 319 322 315 315 314 316 317 316 314 312 310 311 313 312 311 311 311 310 310 309 309 310
332 333 330 330 328 327 323 318 315 318 320 322 316 315 315 317 318 318 317 316 316 314 312 312 312 310 310 310 309 310 310 311
330 330 330 329 327 327 318 312 317 321 322 320 319 316 316 317 318 318 318 318 318 318 318 318 318 316 310 311 310 310 311 311
328 325 327 327 324 319 313 318 321 323 322 321 319 316 317 317 318 318 318 318 318 319 319 319 319 318 313 311 310 310 311 311
327 326 326 324 321 317 317 317 315 319 321 321 319 316 316 317 317 317 318 318 319 319 319 320 319 318 317 312 310 310 311 311
326 326 326 325 323 322 317 318 322 321 318 320 318 315 315 316 316 316 316 318 319 320 321 320 320 319 318 317 316 311 310 311
324 324 324 323 321 319 321 324 319 317 320 316 315 315 315 316 316 316 317 319 321 321 321 321 321 320 319 318 315 314 314 312
322 323 323 323 319 319 319 316 320 321 319 316 317 316 316 316 316 318 321 322 322 322 322 322 321 321 320 319 316 316 314 314
320 322 322 320 317 316 319 320 320 320 318 315 315 316 319 319 318 320 321 321 321 322 322 322 322 321 320 319 317 316 315 315
318 319 320 319 317 315 315 320 318 319 316 316 314 316 318 321 320 319 320 319 320 322 323 323 322 321 321 319 318 315 314 314
319 320 319 317 317 318 320 319 317 316 316 315 315 315 320 320 319 320 318 315 316 318 320 322 322 322 322 320 316 315 316 315
319 319 317 316 316 316 318 319 316 315 315 315 315 317 316 315 314 313 315 320 318 315 318 320 322 322 322 320 319 317 315 315
318 318 317 316 315 316 316 316 315 315 314 316 315 315 316 315 312 312 315 316 321 322 321 321 321 321 321 321 320 319 318 317
317 318 318 318 317 317 317 317 316 315 316 316 315 315 315 315 315 313 315 318 321 322 322 321 320 321 321 322 321 320 319 318
315 318 318 318 318 318 317 317 316 316 316 316 315 314 314 314 314 312 318 320 322 323 322 323 323 322 322 322 322 321 320 319
316 316 316 316 316 316 316 316 316 315 314 314 314 314 314 313 313 313 314 318 321 323 323 322 318 322 322 322 322 321 319 318
Wind_Speed
22 27 33 28 31 35 31 30 30 29 32 32 35 34 34 33 32 31 31 30 24 19 21 21 17 16 15 15 16 16 16 15
22 30 34 28 24 29 29 35 32 30 32 32 33 34 32 32 31 30 30 30 24 19 18 19 16 13 13 13 14 15 15 14
20 26 34 36 32 28 30 36 30 29 31 32 32 32 32 31 31 29 29 29 25 20 17 14 12 11 11 11 11 13 14 13
18 25 31 38 38 31 24 30 34 31 31 32 33 33 31 32 30 29 28 27 25 20 15 13 10 9 9 9 9 11 12 13
24 26 34 30 35 33 31 36 40 36 33 34 34 33 32 31 30 28 26 24 24 21 17 13 9 7 7 6 7 10 11 12
30 29 34 31 40 33 36 40 40 40 40 36 35 35 33 31 28 26 22 22 20 17 16 13 10 8 5 5 6 7 8 9
30 31 31 38 32 32 41 43 43 43 40 38 36 35 33 30 27 23 22 19 17 15 13 10 7 6 4 3 3 4 5 5
36 40 36 29 30 38 40 40 39 39 39 38 36 34 32 28 25 22 18 16 15 12 9 7 5 4 5 5 4 3 2 1
23 29 28 30 33 36 38 44 39 37 37 36 35 34 29 25 20 17 16 14 13 11 9 7 6 7 6 7 6 5 4 3
20 24 31 24 39 44 39 35 39 38 35 35 32 30 32 23 23 19 16 15 13 11 9 9 6 7 7 7 8 8 6 7
20 25 24 34 39 33 38 39 35 34 37 35 34 32 28 27 31 20 17 16 15 13 11 11 11 10 10 10 10 9 8 9
17 20 26 27 31 40 35 37 39 37 36 34 32 31 30 27 24 20 18 17 16 16 15 14 15 14 13 13 14 13 14 13
17 20 24 26 32 39 36 38 42 35 34 35 31 32 27 24 22 20 19 19 18 18 18 20 20 19 18 18 19 19 20 19
20 22 25 27 30 37 42 40 42 35 36 37 39 32 29 24 23 22 19 19 21 23 22 23 23 24 23 22 22 24 27 26
23 25 24 25 32 38 37 36 38 38 38 35 40 39 27 26 24 24 23 22 23 24 25 28 28 28 28 24 10 17 18 20
25 26 26 28 31 36 40 41 40 40 41 38 40 39 31 24 26 27 25 24 25 28 29 30 29 31 31 31 31 28 15 11
26 28 29 31 34 35 36 44 44 41 44 43 48 49 38 30 28 30 29 29 29 29 32 33 34 34 35 34 33 34 38 37
28 33 34 35 37 39 41 37 43 47 45 43 45 48 44 39 40 35 32 32 32 32 33 34 36 36 37 34 36 34 29 32
32 36 38 39 39 41 43 41 43 46 47 48 49 46 44 45 44 38 36 34 33 33 35 37 36 34 36 35 35 35 33 34
38 39 40 42 42 42 43 43 46 46 44 46 46 45 43 42 38 38 38 37 35 39 38 35 21 31 32 32 35 37 37 30
Wind_Direction
205 187 181 153 162 168 158 150 154 171 163 159 151 147 145 141 137 136 139 138 139 135 131 131 127 117 107 96 84 74 71 74
206 167 164 171 190 167 164 173 157 172 166 160 152 148 143 139 136 137 142 143 139 137 130 126 124 118 104 92 82 75 67 71
201 185 174 174 180 164 152 150 166 171 168 160 155 149 145 140 136 135 139 144 146 148 140 135 133 119 108 94 83 73 66 68
191 178 170 165 170 175 171 172 164 171 168 162 164 154 146 141 138 138 141 145 147 153 153 150 144 134 118 100 88 79 70 69
197 190 170 166 163 157 176 174 176 175 173 171 163 156 150 146 143 142 143 145 148 149 155 151 145 136 130 113 97 82 73 65
183 183 166 165 166 168 172 171 175 176 177 170 168 161 156 154 148 145 148 147 139 146 154 150 139 132 142 137 118 99 87 69
183 179 183 170 174 179 172 176 181 181 176 173 171 164 161 158 153 152 153 149 145 150 151 152 144 139 165 172 129 115 99 78
193 174 176 177 175 171 175 180 180 180 178 174 172 169 164 160 161 156 160 159 163 154 154 154 153 176 194 193 188 175 142 104
192 189 189 182 175 176 174 180 179 179 177 176 176 171 167 162 162 170 174 183 178 175 184 193 182 203 207 219 225 224 216 229
215 231 202 195 180 178 185 177 181 176 177 177 175 173 167 168 185 196 192 196 194 202 208 215 216 226 232 241 249 235 237 254
221 204 201 190 187 183 175 174 172 174 180 179 179 180 178 198 199 194 201 200 204 214 225 232 240 245 249 256 257 256 264 266
214 211 208 197 193 178 176 174 172 178 177 171 181 183 191 196 199 199 205 208 216 226 232 242 250 259 265 261 257 261 265 268
209 207 204 197 195 185 180 177 175 179 181 183 187 192 198 199 205 208 210 221 233 239 240 243 249 251 255 259 256 259 262 267
201 202 199 193 189 188 192 188 179 184 182 193 201 205 206 210 213 220 228 237 244 241 245 245 247 251 254 256 257 257 255 257
204 199 199 196 191 189 190 189 188 194 199 202 205 212 214 216 221 226 232 241 246 250 249 248 251 252 252 244 241 248 261 264
206 209 206 199 196 197 201 202 200 202 208 212 209 214 215 223 233 238 241 249 253 253 252 252 255 256 252 248 246 250 262 280
206 209 207 203 202 204 207 212 217 219 218 226 221 219 223 234 244 240 242 247 250 254 255 256 257 259 258 249 248 252 257 260
209 208 206 206 207 209 212 219 218 218 215 216 213 217 228 236 243 245 244 248 252 257 261 260 259 260 261 254 253 257 265 260
211 208 207 206 207 210 214 218 214 214 217 220 221 224 229 236 242 246 248 250 254 258 261 261 259 258 260 258 257 262 264 274
214 212 210 208 209 210 211 214 216 217 219 220 222 227 233 242 248 250 251 254 258 263 266 282 257 271 266 259 258 258 263 275